| time (UTC) | temp F | wind direction | speed MPH | gust MPH | rain 1hr in | rain 24hr in | rain mn in | humidity % | barometer mb |
| 20260901044551 | 91 | 168 | 6.0 | 12.0 | 0.00 | 0.00 | 0.00 | 40 | 994.6 |
| 20260901043046 | 91 | 128 | 7.0 | 14.0 | 0.00 | 0.00 | 0.00 | 39 | 994.4 |
| 20260901041545 | 91 | 153 | 7.0 | 18.0 | 0.00 | 0.00 | 0.00 | 38 | 994.4 |
| 20260901040048 | 92 | 166 | 9.0 | 19.0 | 0.00 | 0.00 | 0.00 | 38 | 993.9 |
| 20260901034544 | 92 | 213 | 9.0 | 21.0 | 0.00 | 0.00 | 0.00 | 39 | 993.6 |
| 20260901033044 | 92 | 140 | 10.0 | 16.0 | 0.00 | 0.00 | 0.00 | 40 | 993.4 |
| 20260901031543 | 92 | 138 | 8.0 | 16.0 | 0.00 | 0.00 | 0.00 | 41 | 993.1 |
| 20260901030043 | 92 | 226 | 7.0 | 18.0 | 0.00 | 0.00 | 0.00 | 40 | 993.0 |
| 20260901024543 | 93 | 163 | 9.0 | 19.0 | 0.00 | 0.00 | 0.00 | 39 | 992.8 |
| 20260901023044 | 93 | 146 | 8.0 | 19.0 | 0.00 | 0.00 | 0.00 | 40 | 992.6 |
| 20260901021544 | 93 | 203 | 12.0 | 21.0 | 0.00 | 0.00 | 0.00 | 39 | 992.4 |
| 20260901020048 | 94 | 165 | 10.0 | 21.0 | 0.00 | 0.00 | 0.00 | 36 | 992.1 |
| 20260901014542 | 96 | 153 | 9.0 | 21.0 | 0.00 | 0.00 | 0.00 | 35 | 991.9 |
| 20260901013041 | 96 | 153 | 13.0 | 23.0 | 0.00 | 0.00 | 0.00 | 37 | 991.9 |
| 20260901011540 | 97 | 155 | 12.0 | 23.0 | 0.00 | 0.00 | 0.00 | 37 | 991.7 |
| 20260901010039 | 98 | 169 | 14.0 | 22.0 | 0.00 | 0.00 | 0.00 | 37 | 991.8 |
| 20260901004550 | 98 | 147 | 11.0 | 22.0 | 0.00 | 0.00 | 0.00 | 36 | 991.7 |
| 20260901003038 | 100 | 86 | 11.0 | 19.0 | 0.00 | 0.00 | 0.00 | 34 | 991.8 |
| 20260901001538 | 100 | 168 | 13.0 | 22.0 | 0.00 | 0.00 | 0.00 | 34 | 991.8 |
| 20260901000058 | 100 | 151 | 12.0 | 22.0 | 0.00 | 0.00 | 0.00 | 33 | 991.8 |
| 20260831234537 | 101 | 169 | 10.0 | 24.0 | 0.00 | 0.00 | 0.00 | 34 | 991.9 |
| 20260831233036 | 99 | 189 | 12.0 | 23.0 | 0.00 | 0.00 | 0.00 | 37 | 991.8 |
| 20260831231547 | 100 | 163 | 14.0 | 27.0 | 0.00 | 0.00 | 0.00 | 36 | 991.9 |
| 20260831230037 | 102 | 146 | 12.0 | 21.0 | 0.00 | 0.00 | 0.00 | 32 | 991.9 |
| 20260831224527 | 102 | 149 | 11.0 | 22.0 | 0.00 | 0.00 | 0.00 | 32 | 992.0 |
| 20260831223024 | 102 | 205 | 10.0 | 20.0 | 0.00 | 0.00 | 0.00 | 32 | 992.2 |
| 20260831221522 | 101 | 159 | 13.0 | 23.0 | 0.00 | 0.00 | 0.00 | 32 | 992.4 |
| 20260831220019 | 103 | 151 | 11.0 | 23.0 | 0.00 | 0.00 | 0.00 | 31 | 992.6 |
| 20260831214515 | 102 | 134 | 12.0 | 25.0 | 0.00 | 0.00 | 0.00 | 31 | 992.8 |
| 20260831213013 | 102 | 154 | 14.0 | 23.0 | 0.00 | 0.00 | 0.00 | 31 | 993.1 |
| 20260831211512 | 101 | 107 | 11.0 | 22.0 | 0.00 | 0.00 | 0.00 | 32 | 993.3 |
| 20260831210011 | 102 | 171 | 12.0 | 22.0 | 0.00 | 0.00 | 0.00 | 29 | 993.5 |
| 20260831204508 | 102 | 129 | 12.0 | 21.0 | 0.00 | 0.00 | 0.00 | 31 | 993.8 |
| 20260831203005 | 101 | 159 | 11.0 | 21.0 | 0.00 | 0.00 | 0.00 | 31 | 994.1 |
| 20260831201505 | 102 | 167 | 9.0 | 20.0 | 0.00 | 0.00 | 0.00 | 30 | 994.2 |
| 20260831200100 | 102 | 134 | 7.0 | 15.0 | 0.00 | 0.00 | 0.00 | 31 | 994.4 |
| 20260831194636 | 101 | 119 | 11.0 | 22.0 | 0.00 | 0.00 | 0.00 | 30 | 994.8 |
| 20260831193055 | 101 | 219 | 7.0 | 20.0 | 0.00 | 0.00 | 0.00 | 30 | 994.9 |
| 20260831191551 | 100 | 154 | 12.0 | 22.0 | 0.00 | 0.00 | 0.00 | 30 | 994.8 |
| 20260831184542 | 99 | 211 | 9.0 | 24.0 | 0.00 | 0.00 | 0.00 | 30 | 995.2 |
| 20260831183038 | 98 | 140 | 11.0 | 19.0 | 0.00 | 0.00 | 0.00 | 31 | 995.3 |
| 20260831181542 | 98 | 126 | 12.0 | 21.0 | 0.00 | 0.00 | 0.00 | 31 | 995.4 |
| 20260831180030 | 98 | 135 | 10.0 | 20.0 | 0.00 | 0.00 | 0.00 | 32 | 995.4 |
| 20260831174528 | 96 | 158 | 10.0 | 20.0 | 0.00 | 0.00 | 0.00 | 34 | 995.5 |
| 20260831173024 | 96 | 122 | 9.0 | 16.0 | 0.00 | 0.00 | 0.00 | 34 | 995.6 |
| 20260831171523 | 95 | 127 | 12.0 | 20.0 | 0.00 | 0.00 | 0.00 | 36 | 995.6 |
| 20260831170026 | 96 | 164 | 10.0 | 18.0 | 0.00 | 0.00 | 0.00 | 35 | 995.4 |
| 20260831164519 | 96 | 149 | 9.0 | 18.0 | 0.00 | 0.00 | 0.00 | 35 | 995.4 |
| 20260831163025 | 95 | 155 | 9.0 | 18.0 | 0.00 | 0.00 | 0.00 | 37 | 995.4 |
| 20260831161511 | 94 | 177 | 8.0 | 22.0 | 0.00 | 0.00 | 0.00 | 38 | 995.4 |
| 20260831160007 | 94 | 145 | 8.0 | 18.0 | 0.00 | 0.00 | 0.00 | 38 | 995.4 |
| 20260831154503 | 94 | 190 | 9.0 | 16.0 | 0.00 | 0.00 | 0.00 | 39 | 995.4 |
| 20260831153059 | 93 | 169 | 3.0 | 8.0 | 0.00 | 0.00 | 0.00 | 40 | 995.3 |
| 20260831151554 | 91 | 253 | 2.0 | 5.0 | 0.00 | 0.00 | 0.00 | 43 | 995.3 |
| 20260831150055 | 90 | 167 | 0.0 | 5.0 | 0.00 | 0.00 | 0.00 | 43 | 995.2 |
| 20260831144553 | 89 | 170 | 0.0 | 4.0 | 0.00 | 0.00 | 0.00 | 43 | 995.0 |
| 20260831143107 | 87 | 265 | 0.0 | 1.0 | 0.00 | 0.00 | 0.00 | 46 | 994.8 |
| 20260831141605 | 86 | 265 | 0.0 | 0.0 | 0.00 | 0.00 | 0.00 | 49 | 994.6 |
| 20260831140047 | 86 | 264 | 0.0 | 1.0 | 0.00 | 0.00 | 0.00 | 48 | 994.4 |
| 20260831134542 | 86 | 248 | 0.0 | 0.0 | 0.00 | 0.00 | 0.00 | 47 | 994.1 |
| 20260831133040 | 86 | 234 | 0.0 | 1.0 | 0.00 | 0.00 | 0.00 | 47 | 993.9 |
| 20260831131537 | 86 | 218 | 0.0 | 2.0 | 0.00 | 0.00 | 0.00 | 47 | 993.7 |
| 20260831130042 | 86 | 156 | 0.0 | 5.0 | 0.00 | 0.00 | 0.00 | 47 | 993.5 |
| 20260831124534 | 86 | 157 | 3.0 | 7.0 | 0.00 | 0.00 | 0.00 | 46 | 993.3 |
| 20260831123033 | 87 | 217 | 1.0 | 5.0 | 0.00 | 0.00 | 0.00 | 45 | 993.3 |
| 20260831121531 | 88 | 156 | 2.0 | 9.0 | 0.00 | 0.00 | 0.00 | 44 | 993.1 |
| 20260831120032 | 88 | 150 | 2.0 | 7.0 | 0.00 | 0.00 | 0.00 | 44 | 993.0 |
| 20260831114535 | 89 | 157 | 3.0 | 10.0 | 0.00 | 0.00 | 0.00 | 43 | 993.0 |
| 20260831113029 | 90 | 178 | 5.0 | 9.0 | 0.00 | 0.00 | 0.00 | 42 | 992.9 |
| 20260831111529 | 90 | 140 | 8.0 | 14.0 | 0.00 | 0.00 | 0.00 | 42 | 993.0 |
| 20260831110028 | 90 | 139 | 8.0 | 16.0 | 0.00 | 0.00 | 0.00 | 42 | 993.1 |
| 20260831104526 | 91 | 104 | 7.0 | 13.0 | 0.00 | 0.00 | 0.00 | 41 | 993.0 |
| 20260831103027 | 91 | 143 | 6.0 | 14.0 | 0.00 | 0.00 | 0.00 | 41 | 993.0 |
| 20260831101529 | 90 | 134 | 5.0 | 13.0 | 0.00 | 0.00 | 0.00 | 42 | 992.9 |
| 20260831100025 | 91 | 109 | 6.0 | 13.0 | 0.00 | 0.00 | 0.00 | 43 | 993.0 |
| 20260831094522 | 90 | 161 | 9.0 | 14.0 | 0.00 | 0.00 | 0.00 | 44 | 993.0 |
| 20260831093018 | 88 | 158 | 4.0 | 8.0 | 0.00 | 0.00 | 0.00 | 45 | 992.9 |
| 20260831091514 | 87 | 159 | 2.0 | 5.0 | 0.00 | 0.00 | 0.00 | 45 | 992.8 |
| 20260831090012 | 86 | 185 | 1.0 | 4.0 | 0.00 | 0.00 | 0.00 | 47 | 992.8 |
| 20260831084510 | 85 | 103 | 0.0 | 0.0 | 0.00 | 0.00 | 0.00 | 46 | 992.8 |
| 20260831083010 | 86 | 103 | 0.0 | 0.0 | 0.00 | 0.00 | 0.00 | 45 | 992.9 |
| 20260831081507 | 86 | 312 | 0.0 | 0.0 | 0.00 | 0.00 | 0.00 | 44 | 992.8 |
| 20260831080006 | 87 | 311 | 1.0 | 4.0 | 0.00 | 0.00 | 0.00 | 44 | 992.7 |
| 20260831074504 | 87 | 17 | 1.0 | 5.0 | 0.00 | 0.00 | 0.00 | 44 | 992.7 |
| 20260831073011 | 87 | 330 | 0.0 | 2.0 | 0.00 | 0.00 | 0.00 | 44 | 992.7 |
| 20260831071502 | 87 | 320 | 1.0 | 4.0 | 0.00 | 0.00 | 0.00 | 44 | 992.6 |
| 20260831070058 | 87 | 327 | 1.0 | 4.0 | 0.00 | 0.00 | 0.00 | 44 | 992.4 |
| 20260831064559 | 86 | 350 | 2.0 | 3.0 | 0.00 | 0.00 | 0.00 | 44 | 992.3 |
| 20260831063058 | 86 | 290 | 0.0 | 0.0 | 0.00 | 0.00 | 0.00 | 45 | 992.2 |
| 20260831061601 | 86 | 279 | 0.0 | 1.0 | 0.00 | 0.00 | 0.00 | 45 | 992.2 |
| 20260831060105 | 86 | 150 | 0.0 | 6.0 | 0.00 | 0.00 | 0.00 | 46 | 992.2 |
| 20260831054555 | 87 | 177 | 2.0 | 8.0 | 0.00 | 0.00 | 0.00 | 44 | 992.1 |
| 20260831053054 | 87 | 222 | 4.0 | 11.0 | 0.00 | 0.00 | 0.00 | 44 | 992.1 |
| 20260831051605 | 88 | 211 | 6.0 | 15.0 | 0.00 | 0.00 | 0.00 | 43 | 992.2 |
| 20260831050053 | 88 | 234 | 6.0 | 12.0 | 0.00 | 0.00 | 0.00 | 45 | 992.3 |